sat.trackr.live / text

‹ back to catalog

STARLINK-31008

NORAD 58636 · 2023-203U

PAYLOAD ACTIVE UNKNOWN

§ Identity

Operator
Country
US
Launch date
2023-12-23
Launch site
AFETR
Launch vehicle
Mass (kg)
RCS (m²)

Purposes: comms

External: N2YO · Heavens-Above · Gunter

§ Orbital elements

Epoch: 2026-09-19T17:32:44.403936Z

Period
94.27 min
Inclination
43.0042°
Eccentricity
0.0000967
Mean motion
15.27575309 rev/d
Perigee alt
482.4 km
Apogee alt
483.7 km
Semi-major
6,861.2 km
B*
1.7132e-6
RAAN
51.5837°
Arg perigee
267.7901°
Mean anomaly
92.2840°
Rev number
15,446

§ Raw data

STARLINK-310081 58636U 23203U   26262.73106949 -.00000215  00000+0  17132-5 0  99922 58636  43.0042  51.5837 0000967 267.7901  92.2840 15.27575309154465

JSON: /api/v1/satellites/58636 · /tle

For live sub-satellite position, see the globe view (requires WebGL).

§ Visibility from observer

Set your observer location to see the next 7 days of passes ≥ 10°. The values pass through the URL so the page stays shareable.

No JS? Fill the form by hand. The geolocation button needs JavaScript.